This demonstration page uses our WeatherBlox Daily Observations layout. Learn more.

Left ArrowRight Arrow

Hourly Observations for November 23, 2015

Temp ( °F °C ) Dew Point ( °F °C ) Humidity (%) Winds ( mph kmh ) Pressure ( in mb ) Visibility ( mi km ) Precip ( " mm )
12:53 am 00:53 Clear 36 2.2 23 -5 59 59 E 5 7 30.14 1021 10 16 0.00 0.00
1:53 am 01:53 Clear 30 -1.1 22 -5.6 72 72 NNE 6 9 30.14 1021 10 16 0.00 0.00
2:53 am 02:53 Clear 30 -1.1 22 -5.6 72 72 NNE 7 11 30.13 1020 10 16 0.00 0.00
3:53 am 03:53 Clear 28 -2.2 21 -6.1 75 75 N 7 11 30.13 1020 10 16 0.00 0.00
4:53 am 04:53 Clear 28 -2.2 21 -6.1 75 75 N 7 11 30.13 1020 10 16 0.00 0.00
5:53 am 05:53 Clear 28 -2.2 22 -5.6 78 78 N 6 9 30.15 1021 10 16 0.00 0.00
6:53 am 06:53 Clear 28 -2.2 22 -5.6 78 78 N 6 9 30.18 1022 10 16 0.00 0.00
7:53 am 07:53 Sunny 30 -1.1 23 -5 75 75 N 5 7 30.19 1022 10 16 0.00 0.00
8:53 am 08:53 Sunny 41 5 26 -3.3 55 55 VRB 3 6 30.19 1022 10 16 0.00 0.00
9:53 am 09:53 Sunny 47 8.3 27 -2.8 46 46 SE 7 11 30.18 1022 10 16 0.00 0.00
10:53 am 10:53 Sunny 50 10 28 -2.2 43 43 ESE 6 9 30.16 1021 10 16 0.00 0.00
11:53 am 11:53 Sunny 54 12.2 28 -2.2 37 37 SE 7 11 30.12 1020 10 16 0.00 0.00
12:53 pm 12:53 Sunny 56 13.3 29 -1.7 36 36 SSE 5 7 30.10 1019 10 16 0.00 0.00
1:53 pm 13:53 Sunny 58 14.4 29 -1.7 33 33 S 8 13 30.08 1019 10 16 0.00 0.00
2:53 pm 14:53 Sunny 59 15 28 -2.2 31 31 SSE 7 11 30.05 1018 10 16 0.00 0.00
3:53 pm 15:53 Sunny 60 15.6 29 -1.7 31 31 Calm 30.04 1017 10 16 0.00 0.00
4:53 pm 16:53 Sunny 59 15 31 -0.6 35 35 Calm 30.03 1017 10 16 0.00 0.00
5:53 pm 17:53 Clear 57 13.9 32 0 39 39 ESE 7 11 30.03 1017 10 16 0.00 0.00
6:53 pm 18:53 Clear 55 12.8 32 0 42 42 SE 7 11 30.04 1017 10 16 0.00 0.00
7:53 pm 19:53 Clear 53 11.7 31 -0.6 43 43 ESE 9 15 30.04 1017 10 16 0.00 0.00
8:53 pm 20:53 Clear 50 10 31 -0.6 48 48 SE 10 17 30.04 1017 10 16 0.00 0.00
9:53 pm 21:53 Clear 49 9.4 31 -0.6 50 50 SE 12 19 30.03 1017 10 16 0.00 0.00
10:53 pm 22:53 Clear 47 8.3 31 -0.6 54 54 SE 12 19 30.02 1017 10 16 0.00 0.00
11:53 pm 23:53 Clear 46 7.8 32 0 58 58 SE 9 15 30.01 1016 10 16 0.00 0.00

Powered by AerisWeather